Regional Weather Roundup
Issued by NWS

Home | Current Version | Previous Version | Graphics & Text | Print | Product List | Glossary On
Versions: 1 2 3 4 5 6 7 8 9 10 11 12 13 14 15 16 17 18 19 20 21 22 23 24 25 26 27 28 29 30 31 32 33 34 35 36 37 38 39 40 41 42 43 44 45 46 47 48 49 50
000
ASUS43 KLOT 232304
RWRIL

ILLINOIS REGIONAL WEATHER ROUNDUP
NATIONAL WEATHER SERVICE CHICAGO/ROMEOVILLE IL
600 PM CDT MON OCT 23 2017

NOTE: "FAIR" INDICATES FEW OR NO CLOUDS BELOW 12,000 FEET WITH NO
SIGNIFICANT WEATHER AND/OR OBSTRUCTIONS TO VISIBILITY.

* THESE STATIONS ARE NOT UNDER NWS QUALITY CONTROL. THEY ALSO MAY NOT
  REPORT WEATHER SUCH AS PRECIPITATION OR FOG.

ILZ001-002-007-009-015-016-024-240000-
NORTHWEST ILLINOIS

CITY           SKY/WX    TMP DP  RH WIND       PRES   REMARKS
MOLINE         CLOUDY    55  47  74 W14       29.76R
STERLING*      LGT RAIN  56  46  69 W10         N/A
SAVANNA*       RAIN      57  45  62 NW14      29.72S
$$

ILZ003-004-008-010-011-017-018-240000-
NORTH CENTRAL ILLINOIS

CITY           SKY/WX    TMP DP  RH WIND       PRES   REMARKS
ROCKFORD       CLOUDY    55  46  71 W5        29.68F
FREEPORT*      CLOUDY    55  44  68 W7        29.71F
ROCHELLE*      CLOUDY    54  47  78 W7        29.68F
DE KALB*       CLOUDY    52  45  77 W6        29.68F
PERU*          CLOUDY    52  46  79 W5        29.71S
$$

ILZ005-006-012>014-019>023-240000-
NORTHEAST ILLINOIS

CITY           SKY/WX    TMP DP  RH WIND       PRES   REMARKS
CHICAGO-OHARE  CLOUDY    53  47  79 W7        29.67F
CHICAGO-MIDWAY CLOUDY    53  50  89 W7        29.67F
AURORA         CLOUDY    51  47  86 W6        29.69S
LANSING*       CLOUDY    51  50  97 W6        29.67S
JOLIET*        CLOUDY    53  49  86 W5        29.69R
WAUKEGAN       CLOUDY    51  49  92 NW3       29.65F
DUPAGE AIRPORT MOCLDY    51  47  86 W6        29.67F
KANKAKEE*      CLOUDY    51  50  97 W5        29.69F
WHEELING       CLOUDY    53  50  89 W3        29.68F
MORRIS*        CLOUDY    52  47  82 W6        29.68S
ROMEOVILLE*    CLOUDY    51  49  91 W7        29.69R
NORTHERLY ISL    N/A     53  48  83 W8          N/A
$$

LMZ740>746-240000-
SOUTHERN LAKE MICHIGAN

STATION/POSITION SKY/WX   TEMP    WIND        PRES    VSBY  WAVE
                          AIR SEA DIR/SP/G                  HT/PER
                          (F)     (DEG/KT/KT) (MB)    (MI)  (FT/S)
SOUTHERN BUOY              55 60  350/ 16/ 17 1003.5          3/ 5
WILMETTE HARBOR            53 57  290/  8/ 10   N/A           3/ 5
BURNHAM HARBOR             53     260/ 10/ 11   N/A
CALUMET HARBOR             52     280/  3/  6 1004.0F
BURNS HARBOR               55     290/ 16/ 20 1004.7S
MICHIGAN CITY              54     280/ 24/ 26   N/A
MICHIGAN CITY 6N           55 57  300/ 19/ 25   N/A           6/ 6
ST. JOSEPH                 56 58  350/ 19/ 25 1003.4F         7/ 5
$$

ILZ025>027-034>036-040-047-049-050-058-095>099-240000-
WEST-CENTRAL ILLINOIS

CITY           SKY/WX    TMP DP  RH WIND       PRES   REMARKS
QUINCY         MOCLDY    55  47  74 NW8       29.82S
MACOMB*        LGT RAIN  53  49  86 W9        29.82S
JACKSONVILLE*  CLOUDY    59  43  55 NW15G23   29.79R
PITTSFIELD*    CLOUDY    57  47  70 NW8       29.83R
$$

ILZ028>032-037-038-041>044-048-051>054-059>061-240000-
CENTRAL ILLINOIS

CITY           SKY/WX    TMP DP  RH WIND       PRES   REMARKS
PONTIAC        CLOUDY    53  50  90 W7        29.71F
DECATUR        CLOUDY    53  47  79 S5        29.73F
PEORIA         CLOUDY    59  44  57 NW10G18   29.74R
LACON*         CLOUDY    57  47  69 W8        29.71S
LINCOLN*       CLOUDY    60  47  61 CALM      29.72F
SPRINGFIELD    CLOUDY    62  46  55 W17G25    29.74R
TAYLORVILLE    CLOUDY    60  47  61 SW5       29.73F
$$

ILZ033-039-045-046-055>057-062-063-240000-
EAST-CENTRAL ILLINOIS

CITY           SKY/WX    TMP DP  RH WIND       PRES   REMARKS
CHAMPAIGN      CLOUDY    53  49  86 W9        29.73F
DANVILLE*      CLOUDY    50  49  97 W6        29.69F
RANTOUL*       CLOUDY    54  52  94 W5        29.71F
MATTOON        CLOUDY    52  52 100 SW8       29.74F
PARIS*         CLOUDY    51  50  99 W8        29.75R
$$

ILZ079-100>102-240000-
SOUTHWEST ILLINOIS

CITY           SKY/WX    TMP DP  RH WIND       PRES   REMARKS
BELLEVILLE     CLOUDY    64  47  53 CALM      29.76S
CAHOKIA*       MOCLDY    68  42  38 W15G29    29.79R
SPARTA*        PTCLDY    63  46  54 S5        29.79F
$$

ILZ064>066-069>071-074>076-080>082-084>086-088>090-092>094-240000-
SOUTH-CENTRAL ILLINOIS

CITY           SKY/WX    TMP DP  RH WIND       PRES   REMARKS
CARBONDALE     PTCLDY    60  49  66 SE6       29.79F
CAIRO*         CLEAR     62  48  61 S7        29.82F
EFFINGHAM*     CLOUDY    53  49  86 SE3       29.78F
MARION         PTCLDY    59  52  77 S9        29.82S
MT. VERNON     CLOUDY    58  49  72 S8        29.80F
CENTRALIA*     CLOUDY    58  48  71 S7        29.78S
SALEM*         CLOUDY    59  46  61 S7        29.79S
METROPOLIS*    PTCLDY    62  46  55 S5        29.84S
$$

ILZ067-068-072-073-078-083-087-091-240000-
SOUTHEAST ILLINOIS

CITY           SKY/WX    TMP DP  RH WIND       PRES   REMARKS
LAWRENCEVILLE  LGT RAIN  53  32  44 W8        29.78S
FLORA*         MOCLDY    57  47  69 S5        29.79F
FAIRFIELD*     MOCLDY    56  45  67 S3        29.79F
HARRISBURG*    PTCLDY    58  46  62 S3        29.83S
ROBINSON*      CLOUDY    51  47  84 W9        29.77R
CARMI*         CLEAR     53  45  74 SW6       29.82R
$$

ABBREVIATIONS USED IN REMARKS
   TC - TEMPERATURE IN CELSIUS
  WCI - WIND CHILL INDEX
   HX - HEAT INDEX
  VSB - VISIBILITY
$$




USA.gov is the U.S. government's official web portal to all federal, state and local government web resources and services.